Flag Weather past 2 weeks in Syktyvkar, Russia

Now
28 °F

Snow flurries. Overcast.


Feels Like: 19 °F
Forecast: 23 / 30 °F
Wind: 10 mph from West

Location: Syktyvkar Airport

Current Time: Nov 29, 2014 at 5:38:11 AM

Latest Report: Nov 29, 2014 at 5:00 AM


Visibility: 5 mi

Pressure: 30.48 "Hg

Humidity: 86%

Dew point: 25 °F

Location of SyktyvkarLocation

Historic Weather in Syktyvkar — Graph

°F

Syktyvkar temperature yesterday

Maximum temperature yesterday: 32 °F (at 5:30 PM)
Minimum temperature yesterday: 25 °F (at 12:00 AM)
Average temperature yesterday: 28 °F

Past Weeks' High & Low Weather Summary

 TemperatureHumidityPressure
High34 °F (Nov 20, 3:00 AM)93% (Nov 17, 10:30 PM)30.74 "Hg (Nov 17, 10:30 PM)
Low-9 °F (Nov 23, 7:00 AM)64% (Nov 14, 12:00 PM)29.95 "Hg (Nov 22, 12:30 PM)
Average22 °F84%30.32 "Hg
* Reported Nov 14 4:00 AM — Nov 29 4:00 AM, Syktyvkar, Weather by CustomWeather, © 2014

Note: Actual official high and low records may vary slightly from our data, if they occured in-between our weather recording intervals... More about our weather records

Advertising

Syktyvkar weather history for previous 24 hours

 ConditionsComfort  
Time TempWeatherWind HumidityBarometerVisibility
4:00 AM
Nov 29
30 °FSnow flurries. Overcast.6 mph86%30.48 "HgN/A
3:30 AM30 °FSnow flurries. Overcast.3 mph80%30.48 "Hg2 mi
3:00 AM30 °FSnow flurries. Overcast.3 mph80%30.48 "HgN/A
2:30 AM30 °FSnow flurries. Overcast.6 mph80%30.48 "Hg6 mi
2:00 AM30 °FSnow flurries. Overcast.8 mph86%30.48 "Hg6 mi
1:30 AM30 °FOvercast.8 mph86%30.48 "Hg6 mi
1:00 AM30 °FOvercast.6 mph93%30.48 "Hg6 mi
12:30 AM30 °FSnow flurries. Overcast.6 mph86%30.45 "Hg2 mi
12:00 AM32 °FSnow flurries. Overcast.6 mph80%30.45 "Hg4 mi
11:30 PM
Nov 28
32 °FSnow flurries. Overcast.6 mph87%30.45 "Hg4 mi
11:00 PM32 °FSnow flurries. Overcast.3 mph87%30.45 "Hg5 mi
10:30 PM32 °FSnow flurries. Overcast.3 mph87%30.45 "Hg3 mi
10:00 PM32 °FSnow flurries. Overcast.3 mph87%30.45 "Hg5 mi
9:30 PM32 °FOvercast.3 mph87%30.45 "Hg6 mi
9:00 PM32 °FSnow flurries. Overcast.6 mph93%30.45 "Hg5 mi
8:30 PM32 °FSnow flurries. Overcast.3 mph93%30.45 "Hg3 mi
8:00 PM32 °FSnow flurries. Overcast.3 mph93%30.42 "Hg6 mi
7:30 PM32 °FOvercast.3 mph93%30.42 "HgN/A
7:00 PM32 °FOvercast.3 mph87%30.42 "Hg6 mi
6:30 PM32 °FSnow flurries. Overcast.3 mph87%30.42 "Hg3 mi
6:00 PM32 °FOvercast.3 mph87%30.42 "HgN/A
5:30 PM32 °FOvercast.3 mph87%30.39 "HgN/A
5:00 PM30 °FOvercast.3 mph93%30.39 "HgN/A
4:30 PM30 °FSnow flurries. Overcast.1 mph93%30.39 "Hg4 mi
4:00 PM30 °FSnow flurries. Overcast.3 mph93%30.39 "Hg2 mi
3:30 PM30 °FSnow flurries. Overcast.3 mph93%30.39 "Hg2 mi
3:00 PM30 °FSnow flurries. Cloudy.3 mph93%30.39 "Hg2 mi
2:30 PM30 °FSnow flurries. Cloudy.3 mph86%30.36 "Hg2 mi
2:00 PM30 °FSnow flurries. Cloudy.3 mph86%30.36 "Hg6 mi
1:30 PM30 °FSnow flurries. Cloudy.3 mph86%30.36 "HgN/A
1:00 PM30 °FSnow flurries. Cloudy.3 mph86%30.36 "Hg6 mi
12:30 PM30 °FSnow flurries. Cloudy.3 mph86%30.36 "HgN/A
12:00 PM30 °FSnow flurries. Cloudy.6 mph86%30.36 "Hg3 mi
11:30 AM28 °FSnow flurries. Cloudy.3 mph93%30.33 "Hg5 mi
11:00 AM28 °FSnow flurries. Cloudy.1 mph93%30.33 "Hg2 mi
10:30 AM27 °FSnow flurries. Cloudy.3 mph93%30.33 "Hg2 mi
10:00 AM27 °FSnow flurries. Cloudy.3 mph93%30.33 "Hg1 mi
9:30 AM27 °FSnow showers. Cloudy.3 mph93%30.33 "Hg1 mi
9:00 AM27 °FSnow showers. Overcast.3 mph93%30.33 "Hg1 mi
8:30 AM27 °FSnow flurries. Overcast.1 mph93%30.33 "Hg2 mi
8:00 AM27 °FSnow flurries. Overcast.1 mph93%30.33 "Hg4 mi
7:30 AM25 °FSnow flurries. Overcast.3 mph93%30.33 "Hg4 mi
7:00 AM25 °FSnow flurries. Overcast.3 mph93%30.33 "Hg4 mi
6:30 AM25 °FSnow flurries. Mostly cloudy.6 mph93%30.33 "Hg2 mi
6:00 AM25 °FSnow flurries. Mostly cloudy.3 mph93%30.33 "Hg4 mi
5:30 AM25 °FSnow flurries. Mostly cloudy.3 mph93%30.33 "Hg4 mi
5:00 AM25 °FSnow flurries. Mostly cloudy.3 mph93%30.33 "Hg4 mi
Weather by CustomWeather, © 2014

See weather overviewHow to use our weather pages